Flag for Germany Weather past 2 weeks in Nordkirchen, North Rhine-Westphalia, Germany

Now
68 °F

Thundershowers. Passing clouds.


Feels Like: 68 °F
Forecast: 70 / 97 °F
Wind: 3 mph from North

Location: Muenster / Osnabrueck

Current Time: Jul 3, 2015 at 4:44:59 AM

Latest Report: Jul 3, 2015 at 4:20 AM


Visibility: N/A

Pressure: 30.18 "Hg

Humidity: 94%

Dew point: 66 °F

Location of NordkirchenLocation

Historic Weather in Nordkirchen — Graph

°F

Nordkirchen temperature yesterday

Maximum temperature yesterday: 99 °F (at 3:20 PM)
Minimum temperature yesterday: 72 °F (at 2:50 AM)
Average temperature yesterday: 85 °F

Past Weeks' High & Low Weather Summary

 TemperatureHumidityPressure
High99 °F (Jul 2, 3:20 PM)100% (Jun 18, 3:20 AM)30.21 "Hg (Jun 18, 3:20 AM)
Low46 °F (Jun 23, 3:50 AM)25% (Jul 1, 2:20 PM)29.65 "Hg (Jun 22, 8:50 PM)
Average63 °F71%30.05 "Hg
* Reported Jun 18 3:20 AM — Jul 3 3:50 AM, Nordkirchen, Weather by CustomWeather, © 2015

Note: Actual official high and low records may vary slightly from our data, if they occured in-between our weather recording intervals... More about our weather records

Advertising

Nordkirchen weather history for previous 24 hours

 ConditionsComfort  
Time TempWeatherWind HumidityBarometerVisibility
3:50 AM
Fri, Jul 3
68 °FThunderstorms. Partly cloudy.7 mph88%30.18 "HgN/A
3:20 AM70 °FThunderstorms. Partly cloudy.18 mph83%30.15 "HgN/A
2:50 AM73 °FThunderstorms. Partly cloudy.12 mph69%30.15 "HgN/A
2:20 AM73 °FThunderstorms. Partly cloudy.7 mph74%30.18 "HgN/A
1:50 AM73 °FThundershowers. Partly cloudy.13 mph74%30.15 "HgN/A
1:20 AM73 °FThundershowers. Partly cloudy.15 mph74%30.15 "HgN/A
12:50 AM77 °FThundershowers. Passing clouds.15 mph65%30.15 "HgN/A
12:20 AM81 °FClear.2 mph58%30.09 "Hg10 mi
11:50 PM
Thu, Jul 2
79 °FClear.1 mph61%30.09 "Hg10 mi
11:20 PM82 °FClear.3 mph55%30.07 "Hg10 mi
10:50 PM84 °FSunny.2 mph48%30.07 "Hg10 mi
10:20 PM86 °FSunny.1 mph46%30.07 "Hg10 mi
9:50 PM88 °FSunny.7 mph43%30.07 "Hg10 mi
9:20 PM90 °FSunny.6 mph38%30.07 "Hg10 mi
8:50 PM91 °FSunny.5 mph38%30.07 "Hg10 mi
8:20 PM93 °FSunny.6 mph36%30.07 "Hg10 mi
7:50 PM95 °FSunny.7 mph34%30.04 "Hg10 mi
7:20 PM95 °FSunny.6 mph30%30.04 "Hg10 mi
6:50 PM97 °FSunny.8 mph28%30.04 "Hg10 mi
6:20 PM97 °FSunny.7 mph28%30.04 "Hg10 mi
5:50 PM99 °FSunny.5 mph27%30.04 "Hg10 mi
5:20 PM97 °FSunny.7 mph25%30.07 "Hg10 mi
4:50 PM99 °FPassing clouds.6 mph25%30.07 "HgN/A
4:20 PM97 °FPassing clouds.7 mph27%30.04 "HgN/A
3:50 PM97 °FSunny.7 mph27%30.07 "Hg10 mi
3:20 PM99 °FSunny.7 mph27%30.04 "Hg10 mi
2:50 PM97 °FSunny.7 mph27%30.07 "Hg10 mi
2:20 PM95 °FSunny.9 mph32%30.07 "Hg10 mi
1:50 PM93 °FPassing clouds.7 mph34%30.07 "HgN/A
1:20 PM93 °FSunny.9 mph34%30.07 "Hg10 mi
12:50 PM90 °FSunny.7 mph41%30.07 "Hg10 mi
12:20 PM90 °FSunny.7 mph41%30.07 "Hg10 mi
11:50 AM88 °FSunny.8 mph40%30.07 "Hg10 mi
11:20 AM88 °FSunny.8 mph43%30.09 "Hg10 mi
10:50 AM86 °FSunny.6 mph43%30.09 "Hg10 mi
10:20 AM84 °FSunny.7 mph45%30.09 "Hg10 mi
9:50 AM82 °FSunny.7 mph48%30.09 "Hg10 mi
9:20 AM79 °FSunny.8 mph51%30.09 "Hg10 mi
8:50 AM79 °FSunny.7 mph48%30.09 "Hg10 mi
8:20 AM77 °FSunny.9 mph51%30.09 "Hg10 mi
7:50 AM75 °FSunny.8 mph54%30.09 "Hg10 mi
7:20 AM73 °FSunny.7 mph53%30.09 "Hg10 mi
6:50 AM72 °FSunny.7 mph57%30.09 "Hg10 mi
6:20 AM72 °FSunny.6 mph53%30.09 "Hg10 mi
5:20 AM72 °FClear.7 mph53%30.07 "Hg10 mi
4:50 AM72 °FClear.7 mph53%30.07 "Hg10 mi
4:20 AM72 °FClear.7 mph53%30.07 "Hg10 mi
Weather by CustomWeather, © 2015

See weather overviewHow to use our weather pages